Covington, KY

5:43 PM EDT on June 27, 2017 (GMT -0400)
Cincinnati-Northern KY International

Weather History for KCVG - October, 2014

Change the Weather History Date:

Monday, October 27, 2014

  Actual Average Record
Temperature  
Mean Temperature 64 °F 52 °F  
Max Temperature 80 °F 62 °F 84 °F (1940)
Min Temperature 47 °F 42 °F 16 °F (1962)
Degree Days  
Heating Degree Days 1 13  
Month to date heating degree days 241 249  
Since 1 July heating degree days 297 307  
Cooling Degree Days 0 0  
Month to date cooling degree days 13 16  
Year to date cooling degree days 1077 1121  
Growing Degree Days 13 (Base 50)    
Moisture  
Dew Point 50 °F    
Average Humidity 59    
Maximum Humidity 72    
Minimum Humidity 45    
Precipitation  
Precipitation 0.00 in 0.11 in 2.14 in (1919)
Month to date precipitation 3.02 2.87  
Year to date precipitation 36.68 35.29  
Snow  
Snow 0.00 in 0.00 in 0.00 in ()
Month to date snowfall 0.0 0.3  
Since 1 July snowfall 0.0 0.3  
Since 1 September snowfall 0.0 0.3  
Snow Depth 0.00 in    
Sea Level Pressure  
Sea Level Pressure 29.90 in    
Wind  
Wind Speed 9 mph (South)    
Max Wind Speed 22 mph    
Max Gust Speed 28 mph    
Visibility 10 miles    
Events      
T = Trace of Precipitation, MM = Missing Value Source: NWS Daily Summary

Daily Weather History Graph

Daily Weather History Graph

Search for Another Location

Airport or City:

Trip Planner

Search our weather history database for the weather conditions in past years. The results will help you decide how hot, cold, wet, or windy it might be!

Date:

Astronomy

Oct. 27, 2014 Rise Set
Actual Time 8:00 AM EDT 6:43 PM EDT
Civil Twilight 7:33 AM EDT 7:11 PM EDT
Nautical Twilight 7:01 AM EDT 7:42 PM EDT
Astronomical Twilight 6:30 AM EDT 8:13 PM EDT
Moon 11:34 AM EDT 9:49 PM EDT
Length of Visible Light 11h 37m
Length of Day
10h 43m
Waxing Crescent, 15% of the Moon is Illuminated
Oct 27
Waxing Crescent
Oct 30
First Quarter
Nov 6
Full
Nov 14
Last Quarter
Nov 22
New

Hourly Weather History & Observations

Time (EDT) Temp. Heat Index Dew Point Humidity Pressure Visibility Wind Dir Wind Speed Gust Speed Precip Events Conditions
12:52 AM 52.0 °F - 36.0 °F 54% 29.95 in 10.0 mi Calm Calm - N/A   Scattered Clouds
1:52 AM 50.0 °F - 35.1 °F 57% 29.95 in 10.0 mi Calm Calm - N/A   Partly Cloudy
2:52 AM 50.0 °F - 36.0 °F 59% 29.94 in 10.0 mi Calm Calm - N/A   Clear
3:52 AM 51.1 °F - 36.0 °F 56% 29.94 in 10.0 mi ESE 4.6 mph - N/A   Clear
4:52 AM 51.1 °F - 37.0 °F 59% 29.94 in 10.0 mi SSE 3.5 mph - N/A   Mostly Cloudy
5:52 AM 53.1 °F - 37.9 °F 57% 29.94 in 10.0 mi SE 4.6 mph - N/A   Scattered Clouds
6:52 AM 53.1 °F - 42.1 °F 66% 29.94 in 10.0 mi SSE 5.8 mph - N/A   Scattered Clouds
7:52 AM 54.0 °F - 45.0 °F 72% 29.94 in 10.0 mi South 6.9 mph - N/A   Mostly Cloudy
8:52 AM 57.9 °F - 48.9 °F 72% 29.95 in 10.0 mi South 10.4 mph - N/A   Mostly Cloudy
9:52 AM 62.6 °F - 53.6 °F 72% 29.96 in 10.0 mi South 10.4 mph - N/A   Mostly Cloudy
10:52 AM 68.0 °F - 57.9 °F 70% 29.94 in 10.0 mi SSW 9.2 mph - N/A   Partly Cloudy
11:52 AM 73.0 °F - 59.0 °F 61% 29.93 in 10.0 mi SSW 13.8 mph 23.0 mph N/A   Scattered Clouds
12:52 PM 75.2 °F - 60.8 °F 61% 29.92 in 10.0 mi SSW 16.1 mph 21.9 mph N/A   Mostly Cloudy
1:52 PM 79.0 °F - 60.1 °F 52% 29.87 in 10.0 mi SSW 9.2 mph 21.9 mph N/A   Mostly Cloudy
2:52 PM 79.0 °F - 59.0 °F 50% 29.86 in 10.0 mi South 17.3 mph 24.2 mph N/A   Mostly Cloudy
3:52 PM 80.1 °F 80.6 °F 57.9 °F 47% 29.85 in 10.0 mi South 16.1 mph 24.2 mph N/A   Mostly Cloudy
4:52 PM 78.1 °F - 57.9 °F 50% 29.84 in 10.0 mi South 11.5 mph - N/A   Mostly Cloudy
5:52 PM 78.1 °F - 55.0 °F 45% 29.83 in 10.0 mi SSW 10.4 mph - N/A   Mostly Cloudy
6:52 PM 75.9 °F - 54.0 °F 46% 29.83 in 10.0 mi South 10.4 mph 20.7 mph N/A   Mostly Cloudy
7:52 PM 75.2 °F - 53.6 °F 47% 29.85 in 10.0 mi South 13.8 mph 21.9 mph N/A   Overcast
8:52 PM 75.0 °F - 54.0 °F 48% 29.84 in 10.0 mi South 12.7 mph 20.7 mph N/A   Overcast
9:52 PM 73.9 °F - 55.0 °F 52% 29.86 in 10.0 mi SSW 11.5 mph 20.7 mph N/A   Overcast
10:52 PM 73.0 °F - 55.0 °F 53% 29.87 in 10.0 mi SSW 9.2 mph 18.4 mph N/A   Mostly Cloudy
11:52 PM 73.0 °F - 55.9 °F 55% 29.87 in 10.0 mi SSW 10.4 mph 18.4 mph N/A   Overcast